Weather History for Big Piney, WY

Change the Weather History Date:

Wednesday, October 3, 2012

  Actual Average Record
Temperature  
Mean Temperature 45 °F 43 °F  
Max Temperature 63 °F 61 °F 78 °F (2010)
Min Temperature 28 °F 26 °F 8 °F (1999)
Degree Days  
Heating Degree Days 20 22  
Month to date heating degree days 64  
Since 1 July heating degree days 815  
Cooling Degree Days 0 0  
Month to date cooling degree days 0  
Year to date cooling degree days 35  
Moisture  
Dew Point 11 °F    
Average Humidity 26    
Maximum Humidity 66    
Minimum Humidity 8    
Precipitation  
Precipitation 0.00 in 0.02 in 0.92 in (1998)
Month to date precipitation 0.07  
Year to date precipitation 5.51  
Sea Level Pressure  
Sea Level Pressure 29.92 in    
Wind  
Wind Speed 7 mph (NW)    
Max Wind Speed 23 mph    
Max Gust Speed 33 mph    
Visibility 10 miles    
Events      
T = Trace of Precipitation, MM = Missing Value Source: NWS Daily Summary

Daily Weather History Graph

Daily Weather History Graph

Search for Another Location

Airport:

Trip Planner

Search our weather history database for the weather conditions in past years. The results will help you decide how hot, cold, wet, or windy it might be!

Date:

Astronomy

Oct. 03, 2012 Rise Set
Actual Time 7:20 AM MDT 6:57 PM MDT
Civil Twilight 6:52 AM MDT 7:25 PM MDT
Nautical Twilight 6:19 AM MDT 7:58 PM MDT
Astronomical Twilight 5:46 AM MDT 8:30 PM MDT
Moon 8:46 PM MDT (10/3) 10:52 AM MDT (10/3)
Length of Visible Light 12h 33m
Length of Day
11h 36m
Waning Gibbous, 88% of the Moon is Illuminated
Oct 3
Waning Gibbous
Oct 8
Last Quarter
Oct 15
New
Oct 21
First Quarter
Oct 29
Full

Hourly Weather History & Observations

Time (MDT) Temp. Windchill Dew Point Humidity Pressure Visibility Wind Dir Wind Speed Gust Speed Precip Events Conditions
12:53 AM 48.9 °F - 24.1 °F 38% 29.78 in 10.0 mi East 3.5 mph - N/A   Clear
1:53 AM 46.9 °F - 24.1 °F 41% 29.78 in 10.0 mi Calm Calm - N/A   Clear
2:53 AM 42.1 °F 40.2 °F 21.9 °F 45% 29.79 in 10.0 mi Variable 3.5 mph - N/A   Clear
3:53 AM 44.1 °F 41.5 °F 21.9 °F 42% 29.77 in 10.0 mi SE 4.6 mph - N/A   Clear
4:53 AM 50.0 °F - 12.9 °F 23% 29.75 in 10.0 mi WNW 15.0 mph 19.6 mph N/A   Clear
5:53 AM 46.0 °F - 12.0 °F 25% 29.80 in 10.0 mi Calm Calm - N/A   Clear
6:53 AM 48.0 °F - 10.0 °F 22% 29.83 in 10.0 mi ESE 3.5 mph - N/A   Clear
7:53 AM 48.0 °F - 10.0 °F 22% 29.84 in 10.0 mi Calm Calm - N/A   Clear
8:53 AM 51.1 °F - 14.0 °F 23% 29.87 in 10.0 mi Calm Calm - N/A   Clear
9:53 AM 55.9 °F - 10.9 °F 17% 29.84 in 10.0 mi South 4.6 mph - N/A   Clear
10:53 AM 60.1 °F - 1.9 °F 10% 29.83 in 10.0 mi NNW 16.1 mph 24.2 mph N/A   Clear
11:53 AM 61.0 °F - 1.0 °F 9% 29.83 in 10.0 mi NW 10.4 mph 20.7 mph N/A   Clear
12:53 PM 61.0 °F - -2.9 °F 8% 29.85 in 10.0 mi WNW 17.3 mph 26.5 mph N/A   Clear
1:53 PM 62.1 °F - -0.0 °F 8% 29.85 in 10.0 mi NW 18.4 mph 32.2 mph N/A   Clear
2:53 PM 59.0 °F - 3.9 °F 11% 29.92 in 10.0 mi NNW 23.0 mph 33.4 mph N/A   Clear
3:53 PM 57.9 °F - 8.1 °F 14% 29.94 in 10.0 mi NW 23.0 mph 28.8 mph N/A   Clear
4:53 PM 55.9 °F - 8.1 °F 15% 29.96 in 10.0 mi NNW 19.6 mph 25.3 mph N/A   Clear
5:53 PM 52.0 °F - 9.0 °F 18% 30.02 in 10.0 mi North 15.0 mph 25.3 mph N/A   Clear
6:53 PM 46.0 °F 40.2 °F 9.0 °F 22% 30.06 in 10.0 mi North 12.7 mph - N/A   Clear
7:53 PM 41.0 °F 33.9 °F 7.0 °F 25% 30.09 in 10.0 mi North 12.7 mph - N/A   Clear
8:53 PM 37.0 °F 31.0 °F 6.1 °F 28% 30.13 in 10.0 mi North 8.1 mph - N/A   Clear
9:53 PM 28.9 °F 25.2 °F 7.0 °F 40% 30.16 in 10.0 mi WNW 3.5 mph - N/A   Clear
10:53 PM 28.0 °F 20.0 °F 16.0 °F 61% 30.18 in 10.0 mi SW 8.1 mph - N/A   Clear
11:53 PM 28.0 °F 19.3 °F 18.0 °F 66% 30.19 in 10.0 mi SSW 9.2 mph - N/A   Clear